軌道要素
Epoch 2015 June 27.0 TT = JDT 2457200.5
T 2015 June 13.27167 TT Rudenko
q 1.3169835 (2000.0) P Q
n 0.17750074 Peri. 320.13249 +0.03031568 -0.98808114
a 3.1357104 Node 127.59718 +0.95876070 -0.01394250
e 0.5800047 Incl. 10.98066 +0.28259315 +0.15330121
P 5.55
From 1477 observations 2009 Aug. 26-2020 Dec. 30, mean residual 0".9.
|